• Em Portugal
  • Lista de países
  • Para 7 dias
  • Temperatura da água
  • Mapas de satélite
  • Mapa do tempo
  • Widgets de tempo
  • user-avatar
    Iniciar Sessão

    Previsão horária em Satif

    Hoje, 23 Outubro, Terça-feira

    Tempo Temperatura Precipitação Vento Pressão Humidade
    00:00 +12°C° 0 mm 4 m/s 675 mmHg 80%
    01:00 +12°C° 0 mm 4 m/s 674 mmHg 81%
    02:00 +11°C° 0 mm 3 m/s 674 mmHg 83%
    03:00 +11°C° 0 mm 3 m/s 674 mmHg 84%
    04:00 +11°C° 0 mm 3 m/s 674 mmHg 85%
    05:00 +11°C° 0 mm 3 m/s 675 mmHg 87%
    06:00 +12°C° 0 mm 2 m/s 675 mmHg 86%
    07:00 +12°C° 0.1 mm 3 m/s 675 mmHg 83%
    08:00 +12°C° 0.1 mm 3 m/s 676 mmHg 80%
    09:00 +13°C° 0.1 mm 4 m/s 676 mmHg 76%
    10:00 +13°C° 0.1 mm 4 m/s 676 mmHg 73%
    11:00 +14°C° 0.1 mm 4 m/s 676 mmHg 71%
    12:00 +14°C° 0.1 mm 5 m/s 677 mmHg 68%
    13:00 +14°C° 0 mm 5 m/s 676 mmHg 66%
    14:00 +14°C° 0 mm 4 m/s 676 mmHg 64%
    15:00 +14°C° 0 mm 4 m/s 676 mmHg 62%
    16:00 +13°C° 0 mm 4 m/s 676 mmHg 66%
    17:00 +13°C° 0 mm 3 m/s 676 mmHg 71%
    18:00 +12°C° 0 mm 3 m/s 676 mmHg 75%
    19:00 +12°C° 0 mm 3 m/s 676 mmHg 78%
    20:00 +12°C° 0 mm 2 m/s 676 mmHg 81%
    21:00 +12°C° 0 mm 2 m/s 676 mmHg 84%
    22:00 +12°C° 0 mm 2 m/s 676 mmHg 85%
    23:00 +10°C° 0 mm 2 m/s 676 mmHg 86%

    Amanhã, 24 Outubro, Quarta-feira

    Tempo Temperatura Precipitação Vento Pressão Humidade
    00:00 +10°C° 0 mm 2 m/s 676 mmHg 87%
    01:00 +10°C° 0 mm 2 m/s 675 mmHg 87%
    02:00 +10°C° 0 mm 2 m/s 675 mmHg 87%
    03:00 +10°C° 0 mm 2 m/s 675 mmHg 87%
    04:00 +10°C° 0 mm 2 m/s 675 mmHg 88%
    05:00 +10°C° 0 mm 2 m/s 675 mmHg 88%
    06:00 +10°C° 0 mm 2 m/s 675 mmHg 89%
    07:00 +12°C° 0 mm 2 m/s 675 mmHg 83%
    08:00 +12°C° 0 mm 2 m/s 676 mmHg 77%
    09:00 +12°C° 0 mm 3 m/s 676 mmHg 71%
    10:00 +13°C° 0 mm 3 m/s 676 mmHg 67%
    11:00 +14°C° 0 mm 3 m/s 676 mmHg 62%
    12:00 +14°C° 0 mm 3 m/s 676 mmHg 58%
    13:00 +16°C° 0 mm 3 m/s 676 mmHg 57%
    14:00 +16°C° 0 mm 3 m/s 676 mmHg 55%
    15:00 +16°C° 0 mm 3 m/s 675 mmHg 53%
    16:00 +14°C° 0 mm 3 m/s 675 mmHg 58%
    17:00 +15°C° 0 mm 2 m/s 675 mmHg 63%
    18:00 +14°C° 0 mm 2 m/s 675 mmHg 68%
    19:00 +13°C° 0 mm 2 m/s 675 mmHg 71%
    20:00 +13°C° 0 mm 1 m/s 675 mmHg 75%
    21:00 +12°C° 0 mm 1 m/s 675 mmHg 78%
    22:00 +12°C° 0 mm 1 m/s 675 mmHg 80%
    23:00 +11°C° 0 mm 1 m/s 675 mmHg 82%

    Depois de amanhã, 25 Outubro, Quinta-feira

    Tempo Temperatura Precipitação Vento Pressão Humidade
    00:00 +11°C° 0 mm 1 m/s 674 mmHg 83%
    01:00 +11°C° 0 mm 1 m/s 674 mmHg 83%
    02:00 +10°C° 0 mm 1 m/s 674 mmHg 83%
    03:00 +10°C° 0 mm 1 m/s 674 mmHg 83%
    04:00 +9°C° 0 mm 0 m/s 674 mmHg 81%
    05:00 +9°C° 0 mm 0 m/s 674 mmHg 80%
    06:00 +9°C° 0 mm 0 m/s 674 mmHg 79%
    07:00 +10°C° 0 mm 0 m/s 675 mmHg 70%
    08:00 +12°C° 0 mm 0 m/s 675 mmHg 61%
    09:00 +15°C° 0 mm 1 m/s 676 mmHg 52%
    10:00 +16°C° 0 mm 1 m/s 676 mmHg 47%
    11:00 +18°C° 0 mm 1 m/s 676 mmHg 43%
    12:00 +19°C° 0 mm 1 m/s 676 mmHg 39%
    13:00 +19°C° 0 mm 1 m/s 676 mmHg 38%
    14:00 +20°C° 0 mm 1 m/s 676 mmHg 38%
    15:00 +19°C° 0 mm 2 m/s 675 mmHg 38%
    16:00 +18°C° 0 mm 2 m/s 675 mmHg 43%
    17:00 +17°C° 0 mm 2 m/s 675 mmHg 48%
    18:00 +16°C° 0 mm 2 m/s 675 mmHg 54%
    19:00 +15°C° 0 mm 2 m/s 675 mmHg 55%
    20:00 +15°C° 0 mm 2 m/s 675 mmHg 57%
    21:00 +15°C° 0 mm 2 m/s 675 mmHg 58%
    22:00 +14°C° 0 mm 2 m/s 675 mmHg 59%
    23:00 +14°C° 0 mm 2 m/s 674 mmHg 59%

    26 Outubro, Sexta-feira

    Tempo Temperatura Precipitação Vento Pressão Humidade
    00:00 +13°C° 0 mm 2 m/s 674 mmHg 60%
    01:00 +12°C° 0 mm 3 m/s 674 mmHg 61%
    02:00 +12°C° 0 mm 3 m/s 673 mmHg 62%
    03:00 +11°C° 0 mm 3 m/s 673 mmHg 63%
    04:00 +11°C° 0 mm 3 m/s 673 mmHg 64%
    05:00 +11°C° 0 mm 3 m/s 673 mmHg 65%
    06:00 +11°C° 0 mm 3 m/s 673 mmHg 66%
    07:00 +12°C° 0 mm 3 m/s 673 mmHg 60%
    08:00 +14°C° 0 mm 3 m/s 674 mmHg 54%
    09:00 +17°C° 0 mm 4 m/s 675 mmHg 48%
    10:00 +18°C° 0 mm 4 m/s 674 mmHg 44%
    11:00 +19°C° 0 mm 4 m/s 674 mmHg 39%
    12:00 +20°C° 0 mm 5 m/s 674 mmHg 35%
    13:00 +20°C° 0 mm 5 m/s 674 mmHg 35%
    14:00 +19°C° 0 mm 5 m/s 673 mmHg 35%
    15:00 +19°C° 0 mm 5 m/s 673 mmHg 35%
    16:00 +18°C° 0 mm 4 m/s 673 mmHg 39%
    17:00 +17°C° 0 mm 4 m/s 672 mmHg 44%
    18:00 +16°C° 0 mm 3 m/s 672 mmHg 48%
    19:00 +14°C° 0 mm 3 m/s 672 mmHg 50%
    20:00 +14°C° 0 mm 3 m/s 672 mmHg 53%
    21:00 +13°C° 0 mm 3 m/s 672 mmHg 55%
    22:00 +13°C° 0 mm 3 m/s 672 mmHg 56%
    23:00 +12°C° 0 mm 3 m/s 672 mmHg 57%

    27 Outubro, Sábado

    Tempo Temperatura Precipitação Vento Pressão Humidade
    00:00 +12°C° 0 mm 4 m/s 671 mmHg 58%
    01:00 +12°C° 0 mm 4 m/s 671 mmHg 59%
    02:00 +12°C° 0 mm 4 m/s 670 mmHg 60%
    03:00 +11°C° 0 mm 4 m/s 670 mmHg 61%
    04:00 +11°C° 0 mm 4 m/s 670 mmHg 62%
    05:00 +11°C° 0 mm 4 m/s 670 mmHg 63%
    06:00 +10°C° 0 mm 4 m/s 670 mmHg 63%
    07:00 +12°C° 0 mm 5 m/s 670 mmHg 57%
    08:00 +14°C° 0 mm 6 m/s 671 mmHg 51%
    09:00 +16°C° 0 mm 6 m/s 671 mmHg 45%
    10:00 +16°C° 0 mm 7 m/s 671 mmHg 44%
    11:00 +17°C° 0 mm 7 m/s 670 mmHg 43%
    12:00 +17°C° 0 mm 7 m/s 670 mmHg 42%
    13:00 +18°C° 0 mm 7 m/s 669 mmHg 43%
    14:00 +18°C° 0 mm 7 m/s 669 mmHg 43%
    15:00 +18°C° 0 mm 8 m/s 668 mmHg 44%
    16:00 +17°C° 0 mm 7 m/s 668 mmHg 48%
    17:00 +16°C° 0 mm 6 m/s 668 mmHg 52%
    18:00 +16°C° 0 mm 6 m/s 667 mmHg 56%
    19:00 +15°C° 0.1 mm 6 m/s 667 mmHg 57%
    20:00 +15°C° 0.1 mm 6 m/s 667 mmHg 59%
    21:00 +15°C° 0.1 mm 7 m/s 667 mmHg 61%
    22:00 +15°C° 0.6 mm 6 m/s 666 mmHg 66%
    23:00 +14°C° 0.6 mm 6 m/s 665 mmHg 70%

    28 Outubro, Domingo

    Tempo Temperatura Precipitação Vento Pressão Humidade
    00:00 +13°C° 0.6 mm 6 m/s 665 mmHg 75%
    01:00 +13°C° 0.2 mm 6 m/s 664 mmHg 76%
    02:00 +13°C° 0.2 mm 5 m/s 664 mmHg 77%
    03:00 +13°C° 0.2 mm 5 m/s 663 mmHg 77%
    04:00 +12°C° 0.1 mm 5 m/s 663 mmHg 79%
    05:00 +12°C° 0.1 mm 5 m/s 662 mmHg 81%
    06:00 +12°C° 0.1 mm 5 m/s 662 mmHg 82%
    07:00 +11°C° 0.9 mm 6 m/s 662 mmHg 78%
    08:00 +12°C° 0.9 mm 7 m/s 662 mmHg 74%
    09:00 +12°C° 0.9 mm 8 m/s 663 mmHg 70%
    10:00 +12°C° 2.2 mm 7 m/s 662 mmHg 74%
    11:00 +11°C° 2.2 mm 6 m/s 662 mmHg 77%
    12:00 +10°C° 2.2 mm 5 m/s 662 mmHg 81%
    13:00 +9°C° 2.7 mm 5 m/s 662 mmHg 81%
    14:00 +8°C° 2.7 mm 5 m/s 662 mmHg 82%
    15:00 +7°C° 2.7 mm 4 m/s 661 mmHg 82%
    16:00 +7°C° 0.2 mm 5 m/s 662 mmHg 79%
    17:00 +6°C° 0.2 mm 5 m/s 663 mmHg 75%
    18:00 +6°C° 0.2 mm 5 m/s 663 mmHg 72%
    19:00 +6°C° 0.7 mm 5 m/s 663 mmHg 74%
    20:00 +5°C° 0.7 mm 5 m/s 664 mmHg 76%
    21:00 +3°C° 0.7 mm 5 m/s 664 mmHg 78%
    22:00 +3°C° 0.7 mm 5 m/s 664 mmHg 77%
    23:00 +4°C° 0.7 mm 4 m/s 664 mmHg 76%

    29 Outubro, Segunda-feira

    Tempo Temperatura Precipitação Vento Pressão Humidade
    00:00 +4°C° 0.7 mm 4 m/s 664 mmHg 74%
    01:00 +2°C° 0.2 mm 5 m/s 664 mmHg 73%
    02:00 +2°C° 0.2 mm 5 m/s 663 mmHg 71%
    03:00 +1°C° 0.2 mm 6 m/s 663 mmHg 69%
    04:00 +1°C° 0.1 mm 6 m/s 663 mmHg 70%
    05:00 +1°C° 0.1 mm 6 m/s 663 mmHg 70%
    06:00 0°C° 0.1 mm 7 m/s 663 mmHg 71%
    07:00 0°C° 0.1 mm 7 m/s 664 mmHg 67%
    08:00 +2°C° 0.1 mm 7 m/s 665 mmHg 63%
    09:00 +2°C° 0.1 mm 8 m/s 665 mmHg 59%
    10:00 +2°C° 0.1 mm 8 m/s 665 mmHg 56%
    11:00 +3°C° 0.1 mm 9 m/s 665 mmHg 53%
    12:00 +5°C° 0.1 mm 9 m/s 665 mmHg 51%
    13:00 +3°C° 0.1 mm 9 m/s 665 mmHg 51%
    14:00 +3°C° 0.1 mm 9 m/s 665 mmHg 52%
    15:00 +3°C° 0.1 mm 9 m/s 665 mmHg 53%
    16:00 +3°C° 0.3 mm 9 m/s 665 mmHg 57%
    17:00 +2°C° 0.3 mm 8 m/s 665 mmHg 60%
    18:00 +2°C° 0.3 mm 8 m/s 666 mmHg 64%
    19:00 +3°C° 0.4 mm 7 m/s 666 mmHg 66%
    20:00 +3°C° 0.4 mm 7 m/s 666 mmHg 69%
    21:00 +3°C° 0.4 mm 6 m/s 667 mmHg 71%
    22:00 +3°C° 0.5 mm 6 m/s 667 mmHg 72%
    23:00 +3°C° 0.5 mm 6 m/s 667 mmHg 73%
    Mostrar mais